Weather History for Council Bluffs, IA

Change the Weather History Date:

Saturday, December 29, 2012

  Actual Average Record
Temperature  
Mean Temperature 16 °F -  
Max Temperature 21 °F 32 °F 59 °F (1999)
Min Temperature 10 °F 17 °F 3 °F (1996)
Degree Days  
Heating Degree Days 50    
Moisture  
Dew Point 11 °F    
Average Humidity 78    
Maximum Humidity 92    
Minimum Humidity 63    
Precipitation  
Precipitation 0.00 in - - ()
Sea Level Pressure  
Sea Level Pressure 30.16 in    
Wind  
Wind Speed 8 mph (WSW)    
Max Wind Speed 12 mph    
Max Gust Speed 15 mph    
Visibility 9 miles    
Events Snow    
Averages and records for this station are not official NWS values.
T = Trace of Precipitation, MM = Missing Value Source: NWS Daily Summary

Daily Weather History Graph

Daily Weather History Graph

Search for Another Location

Airport:

Trip Planner

Search our weather history database for the weather conditions in past years. The results will help you decide how hot, cold, wet, or windy it might be!

Date:

Astronomy

Dec. 29, 2012 Rise Set
Actual Time 7:48 AM CST 5:02 PM CST
Civil Twilight 7:17 AM CST 5:33 PM CST
Nautical Twilight 6:42 AM CST 6:08 PM CST
Astronomical Twilight 6:08 AM CST 6:42 PM CST
Moon 6:37 PM CST (12/29) 8:21 AM CST (12/29)
Length of Visible Light 10h 16m
Length of Day
9h 14m
Full, 98% of the Moon is Illuminated
Dec 29
Full
Jan 4
Last Quarter
Jan 11
New
Jan 18
First Quarter
Jan 26
Full

Hourly Weather History & Observations

Time (CST) Temp. Windchill Dew Point Humidity Pressure Visibility Wind Dir Wind Speed Gust Speed Precip Events Conditions
12:15 AM 14.0 °F 1.2 °F 10.4 °F 86% 30.08 in 7.0 mi NW 10.4 mph - N/A   Overcast
12:35 AM 14.0 °F 3.9 °F 10.4 °F 86% 30.09 in 7.0 mi NNW 6.9 mph - N/A   Overcast
12:55 AM 14.0 °F 2.9 °F 10.4 °F 86% 30.09 in 7.0 mi NW 8.1 mph 15.0 mph N/A   Overcast
1:15 AM 14.0 °F 2.9 °F 10.4 °F 86% 30.09 in 7.0 mi NW 8.1 mph - N/A   Overcast
1:35 AM 15.8 °F 6.1 °F 10.4 °F 79% 30.10 in 8.0 mi NW 6.9 mph 12.7 mph N/A   Overcast
1:55 AM 15.8 °F 8.6 °F 12.2 °F 86% 30.10 in 8.0 mi NW 4.6 mph 11.5 mph N/A   Overcast
2:15 AM 15.8 °F 6.1 °F 12.2 °F 86% 30.10 in 8.0 mi NW 6.9 mph - N/A   Overcast
2:35 AM 15.8 °F 4.2 °F 12.2 °F 86% 30.11 in 9.0 mi NW 9.2 mph - N/A   Overcast
2:55 AM 15.8 °F 6.1 °F 12.2 °F 86% 30.11 in 9.0 mi NW 6.9 mph - N/A   Overcast
3:15 AM 15.8 °F 7.2 °F 12.2 °F 86% 30.12 in 9.0 mi NW 5.8 mph - N/A   Overcast
3:35 AM 15.8 °F 3.4 °F 12.2 °F 86% 30.12 in 10.0 mi WNW 10.4 mph - N/A   Overcast
3:55 AM 15.8 °F 3.4 °F 12.2 °F 86% 30.13 in 10.0 mi WNW 10.4 mph - N/A   Overcast
4:15 AM 15.8 °F 3.4 °F 12.2 °F 86% 30.13 in 10.0 mi NW 10.4 mph - N/A   Overcast
4:35 AM 14.0 °F 2.9 °F 10.4 °F 86% 30.13 in 10.0 mi WNW 8.1 mph 15.0 mph N/A   Overcast
4:55 AM 12.2 °F 0.7 °F 8.6 °F 85% 30.13 in 10.0 mi NW 8.1 mph 13.8 mph N/A   Overcast
5:15 AM 12.2 °F -1.0 °F 8.6 °F 85% 30.13 in 10.0 mi WNW 10.4 mph - N/A Snow Light Snow
5:35 AM 12.2 °F 2.9 °F 8.6 °F 85% 30.14 in 10.0 mi WNW 5.8 mph - N/A   Overcast
6:15 AM 10.4 °F -0.4 °F 6.8 °F 85% 30.15 in 10.0 mi WNW 6.9 mph - N/A Snow Light Snow
6:35 AM 10.4 °F -0.4 °F 6.8 °F 85% 30.15 in 10.0 mi West 6.9 mph - N/A   Overcast
6:55 AM 10.4 °F 2.2 °F 8.6 °F 92% 30.15 in 10.0 mi West 4.6 mph - N/A   Overcast
7:15 AM 10.4 °F 2.2 °F 8.6 °F 92% 30.16 in 9.0 mi West 4.6 mph - N/A   Overcast
7:35 AM 10.4 °F - 6.8 °F 85% 30.16 in 7.0 mi Calm Calm - N/A   Mostly Cloudy
7:55 AM 10.4 °F 4.0 °F 6.8 °F 85% 30.16 in 6.0 mi WSW 3.5 mph - N/A   Partly Cloudy
8:15 AM 10.4 °F 0.8 °F 6.8 °F 85% 30.17 in 6.0 mi SW 5.8 mph - N/A   Clear
8:35 AM 10.4 °F 0.8 °F 6.8 °F 85% 30.17 in 3.0 mi SW 5.8 mph - N/A   Scattered Clouds
8:55 AM 10.4 °F 2.2 °F 6.8 °F 85% 30.17 in 5.0 mi SW 4.6 mph - N/A   Partly Cloudy
9:15 AM 12.2 °F 2.9 °F 8.6 °F 85% 30.17 in 7.0 mi SW 5.8 mph - N/A   Clear
9:35 AM 12.2 °F 2.9 °F 8.6 °F 85% 30.18 in 7.0 mi WSW 5.8 mph - N/A   Clear
9:55 AM 12.2 °F 1.7 °F 8.6 °F 85% 30.19 in 8.0 mi SW 6.9 mph - N/A   Clear
10:15 AM 14.0 °F 3.9 °F 8.6 °F 79% 30.20 in 8.0 mi WSW 6.9 mph - N/A   Clear
10:35 AM 14.0 °F 2.0 °F 8.6 °F 79% 30.20 in 9.0 mi WSW 9.2 mph - N/A   Clear
10:55 AM 14.0 °F 2.9 °F 6.8 °F 73% 30.21 in 9.0 mi WSW 8.1 mph - N/A   Clear
11:15 AM 14.0 °F 5.1 °F 6.8 °F 73% 30.20 in 9.0 mi SW 5.8 mph - N/A   Clear
11:35 AM 15.8 °F 6.1 °F 6.8 °F 68% 30.19 in 10.0 mi SW 6.9 mph - N/A   Clear
11:55 AM 15.8 °F 7.2 °F 6.8 °F 68% 30.18 in 9.0 mi SW 5.8 mph - N/A   Clear
12:15 PM 17.6 °F 8.2 °F 8.6 °F 68% 30.17 in 9.0 mi SW 6.9 mph - N/A   Clear
12:35 PM 17.6 °F 8.2 °F 8.6 °F 68% 30.17 in 9.0 mi SW 6.9 mph - N/A   Clear
12:55 PM 17.6 °F 8.2 °F 8.6 °F 68% 30.16 in 10.0 mi SW 6.9 mph - N/A   Clear
1:15 PM 17.6 °F 8.2 °F 8.6 °F 68% 30.16 in 10.0 mi SW 6.9 mph - N/A   Clear
1:35 PM 19.4 °F 9.5 °F 10.4 °F 68% 30.16 in 10.0 mi SW 8.1 mph - N/A   Clear
1:55 PM 21.2 °F 11.7 °F 10.4 °F 63% 30.16 in 10.0 mi SW 8.1 mph - N/A   Clear
2:15 PM 21.2 °F 12.6 °F 10.4 °F 63% 30.15 in 10.0 mi SW 6.9 mph - N/A   Clear
2:35 PM 21.2 °F 11.7 °F 12.2 °F 68% 30.15 in 10.0 mi SSW 8.1 mph - N/A   Clear
2:55 PM 21.2 °F 12.6 °F 12.2 °F 68% 30.16 in 10.0 mi SSW 6.9 mph - N/A   Clear
3:15 PM 21.2 °F 11.7 °F 12.2 °F 68% 30.16 in 10.0 mi SSW 8.1 mph - N/A   Clear
3:35 PM 21.2 °F 11.7 °F 12.2 °F 68% 30.17 in 10.0 mi SW 8.1 mph 15.0 mph N/A   Clear
3:55 PM 21.2 °F 9.5 °F 12.2 °F 68% 30.18 in 10.0 mi SW 11.5 mph - N/A   Clear
4:15 PM 21.2 °F 10.1 °F 12.2 °F 68% 30.18 in 10.0 mi WSW 10.4 mph - N/A   Clear
4:35 PM 21.2 °F 11.7 °F 12.2 °F 68% 30.18 in 10.0 mi WSW 8.1 mph - N/A   Clear
5:15 PM 21.2 °F 14.9 °F 12.2 °F 68% 30.18 in 10.0 mi SW 4.6 mph - N/A   Clear
5:35 PM 21.2 °F 13.6 °F 12.2 °F 68% 30.18 in 10.0 mi SW 5.8 mph - N/A   Clear
5:55 PM 21.2 °F 12.6 °F 12.2 °F 68% 30.18 in 10.0 mi SW 6.9 mph - N/A   Clear
6:15 PM 19.4 °F 11.5 °F 12.2 °F 74% 30.19 in 10.0 mi WSW 5.8 mph - N/A   Clear
6:35 PM 19.4 °F 9.5 °F 14.0 °F 80% 30.20 in 10.0 mi SW 8.1 mph - N/A   Clear
6:55 PM 21.2 °F 12.6 °F 14.0 °F 74% 30.20 in 10.0 mi SW 6.9 mph - N/A   Clear
7:15 PM 21.2 °F 11.7 °F 14.0 °F 74% 30.21 in 10.0 mi SW 8.1 mph - N/A   Clear
7:35 PM 21.2 °F 10.9 °F 14.0 °F 74% 30.21 in 10.0 mi SW 9.2 mph - N/A   Clear
7:55 PM 21.2 °F 11.7 °F 14.0 °F 74% 30.20 in 10.0 mi SW 8.1 mph - N/A   Clear
8:15 PM 21.2 °F 12.6 °F 14.0 °F 74% 30.20 in 10.0 mi SW 6.9 mph - N/A   Clear
8:55 PM 21.2 °F 10.1 °F 15.8 °F 80% 30.20 in 10.0 mi SW 10.4 mph - N/A   Clear
9:15 PM 21.2 °F 10.1 °F 14.0 °F 74% 30.20 in 10.0 mi SW 10.4 mph - N/A   Clear
9:35 PM 21.2 °F 11.7 °F 15.8 °F 80% 30.20 in 10.0 mi SW 8.1 mph - N/A   Clear
9:55 PM 19.4 °F 10.4 °F 14.0 °F 80% 30.20 in 10.0 mi SW 6.9 mph - N/A   Clear
10:15 PM 21.2 °F 10.9 °F 15.8 °F 80% 30.21 in 10.0 mi SW 9.2 mph - N/A   Clear
10:35 PM 21.2 °F 13.6 °F 15.8 °F 80% 30.20 in 10.0 mi SSW 5.8 mph - N/A   Clear
10:55 PM 19.4 °F 11.5 °F 15.8 °F 86% 30.20 in 10.0 mi SW 5.8 mph - N/A   Clear
11:15 PM 21.2 °F 12.6 °F 15.8 °F 80% 30.21 in 10.0 mi SW 6.9 mph - N/A   Clear
11:35 PM 19.4 °F 10.4 °F 15.8 °F 86% 30.20 in 10.0 mi SSW 6.9 mph - N/A   Clear
11:55 PM 21.2 °F 12.6 °F 15.8 °F 80% 30.21 in 10.0 mi SSW 6.9 mph - N/A   Clear